Date,Time,Wetness (Wet Dry or Ice),Wind Speed (m/s),Temperature (C),Humidity (%),Pressure (mb),Radiation (W/m^2)
2020-09-12,02:30:00,DRY,4.33,13.10,28.0,774.00,1.4
2020-09-12,02:35:00,DRY,5.45,13.10,26.5,774.00,1.2
2020-09-12,02:40:00,DRY,7.27,13.07,30.7,774.00,1.4
2020-09-12,02:45:00,DRY,6.65,13.05,32.0,774.00,1.1
2020-09-12,02:50:00,DRY,3.33,12.97,30.7,774.00,0.7
2020-09-12,02:55:00,DRY,3.85,12.95,34.0,774.00,1.4
2020-09-12,03:00:00,DRY,4.83,12.97,37.0,774.00,1.2
2020-09-12,03:05:00,DRY,4.15,13.00,40.0,774.00,1.1
2020-09-12,03:10:00,DRY,2.87,13.00,41.3,774.00,1.6
2020-09-12,03:15:00,DRY,2.75,12.95,40.0,774.00,0.9
2020-09-12,03:20:00,DRY,3.33,12.83,39.7,774.00,0.9
2020-09-12,03:25:00,DRY,4.80,12.75,39.5,774.00,1.4
2020-09-12,03:30:00,DRY,6.20,12.63,37.3,774.00,1.2
2020-09-12,03:35:00,DRY,4.50,12.60,36.0,774.00,1.2
2020-09-12,03:40:00,DRY,6.57,12.50,37.0,774.00,1.1
2020-09-12,03:45:00,DRY,7.80,12.50,35.0,774.00,1.2
2020-09-12,03:50:00,DRY,7.73,12.43,34.0,774.00,1.0
2020-09-12,03:55:00,DRY,4.95,12.35,25.0,774.00,1.4
2020-09-12,04:00:00,DRY,5.07,12.20,28.3,774.00,1.2
2020-09-12,04:05:00,DRY,6.95,12.10,28.0,774.00,0.9
2020-09-12,04:10:00,DRY,7.90,12.10,27.7,773.33,0.9
2020-09-12,04:15:00,DRY,10.85,12.10,27.5,773.00,1.1
2020-09-12,04:20:00,DRY,7.47,12.07,29.7,773.00,1.1
2020-09-12,04:25:00,DRY,8.45,12.10,31.5,773.50,1.1
2020-09-12,04:30:00,DRY,8.23,12.03,30.7,773.00,1.1
2020-09-12,04:35:00,DRY,5.45,12.00,30.0,773.50,1.1
2020-09-12,04:40:00,DRY,7.97,12.03,30.3,773.33,1.2
2020-09-12,04:45:00,DRY,6.40,12.10,31.5,773.00,1.0
2020-09-12,04:50:00,DRY,6.47,11.93,31.3,773.67,1.1
2020-09-12,04:55:00,DRY,7.80,11.90,31.5,774.00,1.4
2020-09-12,05:00:00,DRY,7.20,11.73,28.0,773.67,0.9
2020-09-12,05:05:00,DRY,7.40,11.70,26.0,774.00,1.3
2020-09-12,05:10:00,DRY,6.60,11.60,27.3,774.00,1.1
2020-09-12,05:15:00,DRY,6.10,11.55,29.5,773.50,1.9
2020-09-12,05:20:00,DRY,7.30,11.40,34.0,774.00,1.8
2020-09-12,05:25:00,DRY,5.85,11.35,36.0,774.00,1.1
2020-09-12,05:30:00,DRY,6.10,11.43,39.3,774.00,0.8
2020-09-12,05:35:00,DRY,7.95,11.30,40.5,774.00,1.1
2020-09-12,05:40:00,DRY,7.80,11.37,41.3,774.00,1.2
2020-09-12,05:45:00,DRY,9.55,11.30,42.0,773.50,1.0
2020-09-12,05:50:00,DRY,8.23,11.43,42.7,774.00,1.3
2020-09-12,05:55:00,DRY,6.35,11.50,44.5,774.00,1.1
2020-09-12,06:00:00,DRY,9.33,11.47,44.0,774.00,1.2
2020-09-12,06:05:00,DRY,7.35,11.40,44.5,774.00,1.1
2020-09-12,06:10:00,DRY,5.83,11.50,45.0,774.00,1.1
2020-09-12,06:15:00,DRY,6.90,11.40,43.0,773.50,1.2
2020-09-12,06:20:00,DRY,7.00,11.37,42.0,774.00,1.0
2020-09-12,06:25:00,DRY,6.75,11.35,42.5,774.00,1.4
2020-09-12,06:30:00,DRY,6.23,11.23,44.7,774.00,1.4
2020-09-12,06:35:00,DRY,9.05,11.40,54.0,774.00,1.3
2020-09-12,06:40:00,DRY,6.90,11.33,54.7,774.00,1.1
2020-09-12,06:45:00,DRY,7.20,11.30,58.0,774.00,1.4
2020-09-12,06:50:00,DRY,4.53,11.07,58.7,774.00,2.5
2020-09-12,06:55:00,DRY,6.00,10.95,58.5,774.00,3.5
2020-09-12,07:00:00,DRY,5.37,10.73,59.0,774.00,5.1
2020-09-12,07:05:00,DRY,5.70,10.70,60.0,774.00,7.0
2020-09-12,07:10:00,DRY,5.70,10.73,60.7,774.00,9.2
2020-09-12,07:15:00,DRY,5.40,10.65,61.5,774.00,11.8
2020-09-12,07:20:00,DRY,7.03,10.70,61.0,774.00,15.2
2020-09-12,07:25:00,DRY,7.50,10.70,62.5,774.00,21.2
2020-09-12,07:30:00,DRY,5.17,10.73,59.7,774.00,32.3
2020-09-12,07:35:00,DRY,5.85,10.65,60.5,774.00,44.8
2020-09-12,07:40:00,DRY,5.40,10.53,62.7,774.00,62.8
2020-09-12,07:45:00,DRY,5.55,10.55,64.0,774.00,80.0
2020-09-12,07:50:00,DRY,5.37,10.60,64.7,774.00,93.4
2020-09-12,07:55:00,DRY,5.95,10.75,65.0,774.00,123.2
2020-09-12,08:00:00,DRY,5.80,11.07,64.7,774.00,171.1
2020-09-12,08:05:00,DRY,5.40,11.10,63.5,774.00,207.8
2020-09-12,08:10:00,DRY,6.70,11.17,64.0,774.00,130.4
2020-09-12,08:15:00,DRY,8.45,11.25,64.0,774.00,143.2
2020-09-12,08:20:00,DRY,7.27,11.30,63.0,774.00,183.3
2020-09-12,08:25:00,DRY,6.10,11.25,62.0,774.00,119.8
2020-09-12,08:30:00,DRY,6.33,11.33,59.3,774.33,297.1
2020-09-12,08:35:00,DRY,6.30,11.60,59.5,774.50,203.5
2020-09-12,08:40:00,DRY,6.77,11.53,60.7,774.00,285.5
2020-09-12,08:45:00,DRY,6.25,11.80,59.5,774.00,497.0
2020-09-12,08:50:00,DRY,7.30,11.73,60.0,774.00,158.1
2020-09-12,08:55:00,DRY,6.70,11.65,60.0,775.00,270.7
2020-09-12,09:00:00,DRY,4.93,12.13,58.7,774.67,675.9
2020-09-12,09:05:00,DRY,6.50,12.30,58.0,775.00,646.9
2020-09-12,09:10:00,DRY,5.93,12.43,58.7,774.33,585.2
2020-09-12,09:15:00,DRY,5.20,12.40,59.5,775.00,551.4
2020-09-12,09:20:00,DRY,5.77,12.07,62.0,774.67,580.4
2020-09-12,09:25:00,DRY,6.30,12.25,61.0,775.00,614.0
2020-09-12,09:30:00,DRY,6.90,12.27,61.3,774.33,671.5
2020-09-12,09:35:00,DRY,4.45,12.70,59.5,775.00,760.2
2020-09-12,09:40:00,DRY,3.60,12.33,61.0,775.00,595.0
2020-09-12,09:45:00,DRY,4.70,12.40,62.0,775.00,642.5
2020-09-12,09:50:00,DRY,5.30,12.50,61.3,775.00,869.1
2020-09-12,09:55:00,DRY,5.80,12.75,60.5,775.00,813.0
2020-09-12,10:00:00,DRY,5.57,12.70,61.3,775.00,658.6
2020-09-12,10:05:00,DRY,6.75,12.50,63.0,775.00,788.2
2020-09-12,10:10:00,DRY,3.77,12.60,63.3,775.00,799.0
2020-09-12,10:15:00,DRY,4.45,12.60,63.0,775.00,838.6
2020-09-12,10:20:00,DRY,7.77,12.50,63.3,775.00,853.1
2020-09-12,10:25:00,DRY,4.35,12.80,63.0,775.00,952.8
2020-09-12,10:30:00,DRY,5.67,12.50,63.7,775.00,542.4
2020-09-12,10:35:00,DRY,3.60,12.15,65.5,775.00,517.0
2020-09-12,10:40:00,DRY,4.07,12.20,65.0,775.00,499.0
2020-09-12,10:45:00,DRY,6.35,11.75,67.0,775.00,387.9
2020-09-12,10:50:00,DRY,4.40,11.67,68.3,775.00,318.2
2020-09-12,10:55:00,DRY,3.55,11.55,68.5,775.00,236.9
2020-09-12,11:00:00,DRY,8.47,11.47,68.3,774.33,264.5
2020-09-12,11:05:00,DRY,6.35,11.40,69.5,774.50,387.9
2020-09-12,11:10:00,DRY,6.47,11.83,67.3,774.67,634.6
2020-09-12,11:15:00,DRY,6.05,12.20,67.0,774.50,514.5
2020-09-12,11:20:00,DRY,8.07,12.17,64.0,775.00,393.9
2020-09-12,11:25:00,DRY,7.65,12.20,66.5,775.00,329.1
2020-09-12,11:30:00,DRY,7.00,12.57,63.0,775.00,468.7
2020-09-12,11:35:00,DRY,3.30,13.00,61.0,775.00,667.9
2020-09-12,11:40:00,DRY,7.57,13.13,61.7,775.00,904.2
2020-09-12,11:45:00,DRY,9.45,13.35,61.0,775.00,908.8
2020-09-12,11:50:00,DRY,4.80,13.60,60.0,775.00,1018.7
2020-09-12,11:55:00,DRY,5.85,13.70,59.5,774.50,778.0
2020-09-12,12:00:00,DRY,4.80,13.97,59.3,775.00,906.3
2020-09-12,12:05:00,DRY,2.90,14.05,59.0,775.00,893.1
2020-09-12,12:10:00,DRY,4.47,14.00,58.0,774.67,808.3
2020-09-12,12:15:00,DRY,3.95,13.95,59.0,774.50,812.5
2020-09-12,12:20:00,DRY,4.13,13.90,58.7,774.33,584.8
2020-09-12,12:25:00,DRY,4.25,13.65,59.5,774.00,587.0
2020-09-12,12:30:00,DRY,4.20,13.27,62.7,774.33,514.3
2020-09-12,12:35:00,DRY,6.60,12.85,63.5,774.50,775.8
2020-09-12,12:40:00,DRY,3.30,13.23,63.7,774.33,963.4
2020-09-12,12:45:00,DRY,3.70,13.50,63.5,774.00,1094.7
2020-09-12,12:50:00,DRY,4.27,13.97,60.3,774.00,576.2
2020-09-12,12:55:00,DRY,3.25,13.35,61.5,774.50,602.0
2020-09-12,13:00:00,DRY,3.70,13.07,62.3,774.33,622.9
2020-09-12,13:05:00,DRY,3.60,13.05,63.0,774.00,647.6
2020-09-12,13:10:00,DRY,2.70,13.27,61.3,774.00,670.0
2020-09-12,13:15:00,DRY,1.70,13.45,60.5,774.00,812.4
2020-09-12,13:20:00,DRY,2.60,13.60,60.3,774.00,1110.3
2020-09-12,13:25:00,DRY,1.80,13.85,59.5,774.00,1035.6
2020-09-12,13:30:00,DRY,5.20,13.60,59.0,774.00,1069.8
2020-09-12,13:35:00,DRY,5.00,13.70,59.0,774.00,1116.3
2020-09-12,13:40:00,DRY,3.37,14.17,60.0,774.00,902.8
2020-09-12,13:45:00,DRY,5.40,13.80,58.0,774.00,1029.5
2020-09-12,13:50:00,DRY,3.57,13.77,59.0,774.00,1229.7
2020-09-12,13:55:00,DRY,1.50,13.50,59.5,774.00,929.4
2020-09-12,14:00:00,DRY,2.73,13.03,60.3,774.00,683.7
2020-09-12,14:05:00,DRY,3.30,12.90,60.0,774.00,823.2
2020-09-12,14:10:00,DRY,3.17,12.93,61.7,774.00,1112.5
2020-09-12,14:15:00,DRY,1.95,13.35,59.5,774.00,1091.0
2020-09-12,14:20:00,DRY,3.13,13.57,57.3,774.00,1097.4
2020-09-12,14:25:00,DRY,4.20,13.70,57.0,774.00,1103.7
2020-09-12,14:30:00,DRY,4.57,13.50,57.7,774.00,1115.6
2020-09-12,14:35:00,DRY,3.75,13.75,56.5,774.00,1078.0
2020-09-12,14:40:00,DRY,6.17,13.33,58.0,774.00,1039.1
2020-09-12,14:45:00,DRY,5.45,13.25,58.5,774.00,920.2
2020-09-12,14:50:00,DRY,2.37,13.13,58.3,774.00,803.7
2020-09-12,14:55:00,DRY,4.20,12.75,59.0,774.00,499.0
2020-09-12,15:00:00,DRY,3.13,12.60,59.7,774.00,731.3
2020-09-12,15:05:00,DRY,1.85,13.10,59.0,774.00,1040.2
2020-09-12,15:10:00,DRY,3.30,13.17,58.7,774.00,909.4
2020-09-12,15:15:00,DRY,5.45,13.10,58.5,774.00,971.3
2020-09-12,15:20:00,DRY,4.23,13.03,59.7,774.00,938.2
2020-09-12,15:25:00,DRY,2.90,13.55,58.5,774.00,917.6
2020-09-12,15:30:00,DRY,3.77,13.00,57.7,774.00,847.7
2020-09-12,15:35:00,DRY,4.30,13.10,58.5,774.00,645.3
2020-09-12,15:40:00,DRY,4.47,13.30,58.0,774.00,562.0
2020-09-12,15:45:00,DRY,3.25,13.20,59.5,774.00,467.9
2020-09-12,15:50:00,DRY,4.00,13.33,58.3,774.00,518.3
2020-09-12,15:55:00,DRY,3.35,13.00,59.5,774.00,351.4
2020-09-12,16:00:00,DRY,3.90,12.73,62.0,774.00,450.2
2020-09-12,16:05:00,DRY,4.05,12.70,63.0,774.00,652.4
2020-09-12,16:10:00,DRY,4.60,13.27,61.0,774.00,573.9
2020-09-12,16:15:00,DRY,6.15,12.90,62.0,774.00,344.8
2020-09-12,16:20:00,DRY,4.90,12.47,63.3,774.00,342.6
2020-09-12,16:25:00,DRY,2.75,12.25,64.0,774.00,355.6
2020-09-12,16:30:00,DRY,4.87,12.03,64.3,774.00,467.7
2020-09-12,16:35:00,DRY,6.00,12.30,64.0,774.00,539.4
2020-09-12,16:40:00,DRY,4.90,12.57,60.0,774.00,459.5
2020-09-12,16:45:00,DRY,5.55,12.60,59.0,774.00,468.7
2020-09-12,16:50:00,DRY,6.03,12.43,59.0,774.00,461.9
2020-09-12,16:55:00,DRY,6.55,12.40,59.0,774.00,499.0
2020-09-12,17:00:00,DRY,5.10,12.33,59.3,774.00,456.6
2020-09-12,17:05:00,DRY,4.10,12.40,59.0,774.00,452.9
2020-09-12,17:10:00,DRY,4.73,12.27,58.7,774.00,316.9
2020-09-12,17:15:00,DRY,5.60,12.15,59.5,774.00,479.8
2020-09-12,17:20:00,DRY,4.53,12.20,58.7,774.00,289.6
2020-09-12,17:25:00,DRY,5.00,11.85,58.5,774.00,304.4
2020-09-12,17:30:00,DRY,6.47,11.80,58.7,774.00,270.3
2020-09-12,17:35:00,DRY,5.85,11.60,58.5,774.00,208.0
2020-09-12,17:40:00,DRY,5.53,11.80,57.0,774.00,226.9
2020-09-12,17:45:00,DRY,4.70,11.90,57.5,774.00,246.6
2020-09-12,17:50:00,DRY,3.47,11.87,57.0,774.00,212.9
2020-09-12,17:55:00,DRY,4.45,11.60,58.0,774.00,193.7
2020-09-12,18:00:00,DRY,4.07,11.63,56.7,774.00,189.7
2020-09-12,18:05:00,DRY,5.45,11.50,57.0,774.00,194.0
2020-09-12,18:10:00,DRY,5.60,11.53,58.0,774.00,200.4
2020-09-12,18:15:00,DRY,6.85,11.25,59.5,774.00,139.3
2020-09-12,18:20:00,DRY,5.57,11.23,58.3,774.00,74.7
2020-09-12,18:25:00,DRY,5.25,11.10,57.5,774.00,84.8
2020-09-12,18:30:00,DRY,6.63,11.03,56.7,774.00,78.8
2020-09-12,18:35:00,DRY,4.65,11.00,58.5,774.00,89.3
2020-09-12,18:40:00,DRY,5.83,11.00,59.0,774.00,81.7
2020-09-12,18:45:00,DRY,2.60,11.05,58.5,774.00,73.7
2020-09-12,18:50:00,DRY,3.93,10.87,59.7,774.00,51.2
2020-09-12,18:55:00,DRY,4.70,10.70,60.5,774.00,53.9
2020-09-12,19:00:00,DRY,5.63,10.63,60.3,774.00,46.0
2020-09-12,19:05:00,DRY,4.55,10.60,60.0,774.00,38.7
2020-09-12,19:10:00,DRY,4.63,10.50,61.0,774.00,29.1
2020-09-12,19:15:00,DRY,4.85,10.40,61.5,774.00,20.2
2020-09-12,19:20:00,DRY,5.60,10.27,62.3,774.00,12.3
2020-09-12,19:25:00,DRY,5.35,10.10,63.5,774.00,6.7
2020-09-12,19:30:00,DRY,5.17,10.07,63.0,774.00,3.1
2020-09-12,19:35:00,DRY,5.90,10.05,63.0,774.00,1.5
2020-09-12,19:40:00,DRY,7.43,10.07,62.3,774.00,1.4
2020-09-12,19:45:00,DRY,5.50,10.00,62.0,774.00,1.6
2020-09-12,19:50:00,DRY,6.70,9.93,65.0,774.00,1.3
2020-09-12,19:55:00,DRY,8.40,9.90,65.0,774.00,1.2
2020-09-12,20:00:00,DRY,8.13,9.90,64.0,774.00,1.5
2020-09-12,20:05:00,DRY,6.00,10.00,63.5,774.00,1.7
2020-09-12,20:10:00,DRY,8.73,9.97,64.7,774.00,1.6
2020-09-12,20:15:00,DRY,7.85,9.95,64.0,774.00,1.4
2020-09-12,20:20:00,DRY,8.17,9.90,63.7,774.00,1.3
2020-09-12,20:25:00,DRY,5.70,9.80,63.0,774.00,1.2
2020-09-12,20:30:00,DRY,8.40,9.80,63.0,774.00,1.3
2020-09-12,20:35:00,DRY,6.80,9.80,62.5,774.00,1.1
2020-09-12,20:40:00,DRY,7.00,9.90,61.0,774.00,1.4
2020-09-12,20:45:00,DRY,7.25,9.85,58.0,774.00,1.1
2020-09-12,20:50:00,DRY,4.93,9.80,59.0,774.00,1.2
2020-09-12,20:55:00,DRY,6.05,9.80,58.5,774.00,1.3
2020-09-12,21:00:00,DRY,6.50,9.80,57.7,774.00,1.3
2020-09-12,21:05:00,DRY,7.10,9.80,58.0,774.00,1.2
2020-09-12,21:10:00,DRY,5.67,9.83,57.3,774.00,1.1
2020-09-12,21:15:00,DRY,8.05,9.90,58.0,774.00,1.2
2020-09-12,21:20:00,DRY,5.70,9.90,57.7,774.00,1.4
2020-09-12,21:25:00,DRY,5.95,9.90,58.5,774.00,1.2
2020-09-12,21:30:00,DRY,4.50,9.90,59.0,774.67,1.6
2020-09-12,21:35:00,DRY,5.10,9.90,59.0,774.50,1.2
2020-09-12,21:40:00,DRY,5.20,9.97,57.3,774.00,1.1
2020-09-12,21:45:00,DRY,4.95,10.00,54.0,774.00,1.9
2020-09-12,21:50:00,DRY,4.90,10.07,53.0,774.00,1.4
2020-09-12,21:55:00,DRY,6.95,10.15,53.0,774.50,1.4
2020-09-12,22:00:00,DRY,3.70,10.10,52.0,774.67,1.1
2020-09-12,22:05:00,DRY,3.85,10.10,51.5,774.50,1.1
2020-09-12,22:10:00,DRY,5.30,10.10,53.0,775.00,1.0
2020-09-12,22:15:00,DRY,6.35,10.10,53.0,775.00,1.9
2020-09-12,22:20:00,DRY,6.27,10.10,53.3,775.00,1.4
2020-09-12,22:25:00,DRY,4.95,10.20,53.5,775.00,1.2
2020-09-12,22:30:00,DRY,4.23,10.20,54.7,775.00,1.3
2020-09-12,22:35:00,DRY,7.55,10.20,54.0,775.00,1.2
2020-09-12,22:40:00,DRY,3.93,10.20,55.7,775.00,0.9
2020-09-12,22:45:00,DRY,5.10,10.15,54.5,774.50,1.2
2020-09-12,22:50:00,DRY,4.93,10.13,56.0,774.67,1.4
2020-09-12,22:55:00,DRY,5.25,10.10,55.5,775.00,1.5
2020-09-12,23:00:00,DRY,5.63,10.10,54.0,774.67,1.2
2020-09-12,23:05:00,DRY,4.10,10.00,52.0,774.00,1.4
2020-09-12,23:10:00,DRY,6.17,10.07,48.3,774.00,1.3
2020-09-12,23:15:00,DRY,5.60,10.00,47.5,774.00,1.1
2020-09-12,23:20:00,DRY,5.17,10.00,46.3,774.00,1.4
2020-09-12,23:25:00,DRY,6.95,10.00,45.5,774.00,1.3
2020-09-12,23:30:00,DRY,5.37,9.97,46.7,774.00,1.2
2020-09-12,23:35:00,DRY,5.40,10.05,44.0,774.00,1.3
2020-09-12,23:40:00,DRY,5.90,10.17,42.3,774.00,1.3
2020-09-12,23:45:00,DRY,3.00,10.10,44.0,774.00,1.9
2020-09-12,23:50:00,DRY,5.70,10.00,45.3,774.00,1.4
2020-09-12,23:55:00,DRY,6.20,9.95,45.5,774.00,1.1
2020-09-13,00:00:00,DRY,8.30,10.10,45.3,774.00,1.3
2020-09-13,00:05:00,DRY,6.40,10.00,45.5,774.00,1.1
2020-09-13,00:10:00,DRY,6.03,10.07,46.7,774.00,1.2
2020-09-13,00:15:00,DRY,7.30,10.00,48.0,774.00,1.1
2020-09-13,00:20:00,DRY,7.50,10.00,51.3,774.00,1.2
2020-09-13,00:25:00,DRY,6.15,10.00,53.0,774.00,1.1
2020-09-13,00:30:00,DRY,6.83,10.03,54.3,774.00,1.0
2020-09-13,00:35:00,DRY,5.20,10.00,52.0,774.00,1.4
2020-09-13,00:40:00,DRY,6.37,9.97,52.3,774.00,1.3
2020-09-13,00:45:00,DRY,4.40,9.95,54.5,774.00,1.1
2020-09-13,00:50:00,DRY,5.93,9.87,53.0,774.00,1.4
2020-09-13,00:55:00,DRY,5.85,9.70,54.5,774.00,2.2
2020-09-13,01:00:00,DRY,6.20,9.70,56.3,774.00,1.4
2020-09-13,01:05:00,DRY,8.55,9.80,56.5,774.00,1.4
2020-09-13,01:10:00,DRY,6.90,9.83,57.3,774.00,1.4
2020-09-13,01:15:00,DRY,7.60,9.80,57.0,774.00,1.4
2020-09-13,01:20:00,DRY,6.70,9.80,57.0,774.00,1.3
2020-09-13,01:25:00,DRY,6.15,9.90,56.0,773.50,1.8
2020-09-13,01:30:00,DRY,6.83,9.93,56.0,774.00,1.4
2020-09-13,01:35:00,DRY,5.50,9.90,56.0,774.00,1.2
2020-09-13,01:40:00,DRY,8.17,10.00,55.0,774.00,1.5
2020-09-13,01:45:00,DRY,5.70,10.00,55.0,773.50,1.6
2020-09-13,01:50:00,DRY,7.13,10.07,55.0,774.00,1.3
2020-09-13,01:55:00,DRY,3.75,10.10,55.5,773.50,2.1
2020-09-13,02:00:00,DRY,6.73,10.10,54.0,773.33,1.4
2020-09-13,02:05:00,DRY,7.70,10.10,54.0,773.50,0.8
2020-09-13,02:10:00,DRY,6.17,10.00,55.0,773.33,1.4
2020-09-13,02:15:00,DRY,7.25,10.00,55.0,773.00,1.4
2020-09-13,02:20:00,DRY,8.50,9.97,55.0,773.00,0.5
2020-09-13,02:25:00,DRY,6.40,9.90,56.0,773.00,1.1
2020-09-13,02:30:00,DRY,7.93,9.90,55.3,773.00,1.3
2020-09-13,02:35:00,DRY,6.15,9.90,55.0,773.00,1.1
2020-09-13,02:40:00,DRY,7.03,9.87,55.0,773.00,0.9
2020-09-13,02:45:00,DRY,7.40,9.90,55.0,773.00,1.4
2020-09-13,02:50:00,DRY,7.07,9.93,55.0,773.00,1.8
2020-09-13,02:55:00,DRY,7.90,9.95,56.0,773.00,1.0
2020-09-13,03:00:00,DRY,6.23,9.93,56.0,773.00,1.3
2020-09-13,03:05:00,DRY,7.45,9.90,56.0,773.00,1.4
2020-09-13,03:10:00,DRY,8.20,9.80,56.0,773.00,1.2
2020-09-13,03:15:00,DRY,7.40,9.80,56.0,773.00,1.3
2020-09-13,03:20:00,DRY,7.17,9.77,57.0,773.00,1.2
2020-09-13,03:25:00,DRY,5.85,9.60,57.0,773.00,1.4
2020-09-13,03:30:00,DRY,8.57,9.73,57.7,773.00,1.8
2020-09-13,03:35:00,DRY,8.05,9.75,57.5,773.00,1.6
2020-09-13,03:40:00,DRY,7.20,9.80,57.0,773.00,1.2
2020-09-13,03:45:00,DRY,5.50,9.70,57.0,773.00,1.2
2020-09-13,03:50:00,DRY,6.00,9.70,57.0,773.00,1.1
2020-09-13,03:55:00,DRY,8.60,9.75,57.0,773.00,1.2
2020-09-13,04:00:00,DRY,8.40,9.83,57.0,773.00,1.1
2020-09-13,04:05:00,DRY,5.80,9.65,58.0,773.00,1.4
2020-09-13,04:10:00,DRY,6.60,9.60,57.7,773.00,1.2
2020-09-13,04:15:00,DRY,8.55,9.70,58.0,773.00,1.2
2020-09-13,04:20:00,DRY,8.13,9.63,58.0,773.00,1.1
2020-09-13,04:25:00,DRY,9.45,9.60,59.0,773.00,1.1
2020-09-13,04:30:00,DRY,7.67,9.60,58.3,773.33,0.9
2020-09-13,04:35:00,DRY,8.25,9.60,59.0,773.00,1.4
2020-09-13,04:40:00,DRY,6.30,9.43,60.0,773.33,1.1
2020-09-13,04:45:00,DRY,8.10,9.50,59.0,773.00,0.8
2020-09-13,04:50:00,DRY,5.53,9.47,59.0,773.00,0.8
2020-09-13,04:55:00,DRY,8.60,9.55,57.5,773.00,1.2
2020-09-13,05:00:00,DRY,7.03,9.50,59.0,773.33,1.1
2020-09-13,05:05:00,DRY,6.45,9.35,61.0,773.50,1.6
2020-09-13,05:10:00,DRY,5.60,9.30,61.0,774.00,1.7
2020-09-13,05:15:00,DRY,6.90,9.30,61.0,774.00,1.3
2020-09-13,05:20:00,DRY,7.33,9.20,61.3,773.67,1.1
2020-09-13,05:25:00,DRY,5.90,9.20,61.5,773.00,1.1
2020-09-13,05:30:00,DRY,7.20,9.20,59.3,774.00,1.1
2020-09-13,05:35:00,DRY,8.30,9.30,58.0,774.00,1.1
2020-09-13,05:40:00,DRY,8.47,9.17,59.0,773.33,0.9
2020-09-13,05:45:00,DRY,8.45,9.35,53.5,773.50,2.2
2020-09-13,05:50:00,DRY,9.27,9.37,52.0,773.67,1.2
2020-09-13,05:55:00,DRY,6.20,9.25,53.5,774.00,1.2
2020-09-13,06:00:00,DRY,7.10,9.40,48.3,773.67,0.9
2020-09-13,06:05:00,DRY,7.60,9.55,46.0,774.00,0.9
2020-09-13,06:10:00,DRY,7.13,9.73,43.3,773.67,1.0
2020-09-13,06:15:00,DRY,6.80,9.85,40.5,773.50,1.2
2020-09-13,06:20:00,DRY,6.47,10.00,36.0,774.00,1.3
2020-09-13,06:25:00,DRY,6.55,9.85,40.0,774.00,1.1
2020-09-13,06:30:00,DRY,7.97,9.80,40.0,774.00,0.9
2020-09-13,06:35:00,DRY,10.30,9.80,38.5,774.00,1.0
2020-09-13,06:40:00,DRY,6.87,9.63,43.3,774.00,1.5
2020-09-13,06:45:00,DRY,7.80,9.65,42.5,774.00,1.3
2020-09-13,06:50:00,DRY,5.43,9.63,43.7,774.00,3.6
2020-09-13,06:55:00,DRY,7.90,9.65,45.0,774.00,6.5
2020-09-13,07:00:00,DRY,5.73,9.67,44.0,774.00,12.6
2020-09-13,07:05:00,DRY,8.65,9.80,39.0,774.00,19.1
2020-09-13,07:10:00,DRY,6.20,10.07,36.0,774.00,25.6
2020-09-13,07:15:00,DRY,7.90,10.15,38.0,774.00,30.4
2020-09-13,07:20:00,DRY,6.83,10.27,38.0,774.00,35.4
2020-09-13,07:25:00,DRY,6.40,10.70,35.5,774.00,39.4
2020-09-13,07:30:00,DRY,6.57,10.67,36.3,774.00,43.2
2020-09-13,07:35:00,DRY,6.95,10.75,33.5,774.00,46.1
2020-09-13,07:40:00,DRY,7.20,11.07,28.3,774.00,48.6
2020-09-13,07:45:00,DRY,7.05,11.25,26.0,774.00,50.9
2020-09-13,07:50:00,DRY,7.43,11.33,24.7,774.00,52.0
2020-09-13,07:55:00,DRY,4.50,11.50,22.0,774.00,53.2
2020-09-13,08:00:00,DRY,7.03,11.63,20.0,774.00,54.0
2020-09-13,08:05:00,DRY,5.75,11.70,19.5,774.00,211.7
2020-09-13,08:10:00,DRY,5.23,11.77,23.0,774.00,297.0
2020-09-13,08:15:00,DRY,5.75,11.70,23.0,774.00,324.6
2020-09-13,08:20:00,DRY,5.43,11.80,22.3,774.00,350.7
2020-09-13,08:25:00,DRY,5.55,11.80,23.0,774.00,372.1
2020-09-13,08:30:00,DRY,6.83,11.83,21.3,774.00,394.9
2020-09-13,08:35:00,DRY,4.45,11.90,22.0,774.00,415.9
2020-09-13,08:40:00,DRY,6.10,11.93,22.0,774.00,444.0
2020-09-13,08:45:00,DRY,5.80,12.00,20.5,774.00,467.5
2020-09-13,08:50:00,DRY,7.27,12.13,18.7,774.00,490.4
2020-09-13,08:55:00,DRY,5.15,12.20,18.5,774.00,519.0
2020-09-13,09:00:00,DRY,5.73,12.20,20.0,774.00,547.1
2020-09-13,09:05:00,DRY,5.30,12.15,22.0,774.00,570.2
2020-09-13,09:10:00,DRY,6.57,11.83,22.7,774.00,593.2
2020-09-13,09:15:00,DRY,4.95,12.20,20.5,774.00,616.7
2020-09-13,09:20:00,DRY,5.30,12.30,20.3,774.00,636.8
2020-09-13,09:25:00,DRY,4.20,12.35,22.0,774.00,656.4
2020-09-13,09:30:00,DRY,3.80,12.15,27.0,774.00,675.9
2020-09-13,09:35:00,DRY,5.35,11.90,31.5,774.50,696.7
2020-09-13,09:40:00,DRY,5.90,12.07,28.7,774.33,716.0
2020-09-13,09:45:00,DRY,4.35,12.05,26.5,774.00,734.1
2020-09-13,09:50:00,DRY,4.13,12.17,27.7,775.00,754.5
2020-09-13,09:55:00,DRY,5.00,12.05,28.0,775.00,773.8
2020-09-13,10:00:00,DRY,6.20,12.30,28.7,775.00,790.8
2020-09-13,10:05:00,DRY,3.35,12.20,40.0,775.00,805.0
2020-09-13,10:10:00,DRY,3.57,11.73,52.3,775.00,820.4
2020-09-13,10:15:00,DRY,3.80,11.30,58.0,775.00,839.0
2020-09-13,10:20:00,DRY,1.37,11.43,57.0,775.00,852.5
2020-09-13,10:25:00,DRY,2.00,11.50,52.0,775.00,870.6
2020-09-13,10:30:00,DRY,4.00,12.23,48.0,775.00,886.0
2020-09-13,10:35:00,DRY,6.00,12.30,46.5,775.00,900.6
2020-09-13,10:40:00,DRY,2.83,12.47,47.0,775.00,915.2
2020-09-13,10:45:00,DRY,4.00,11.90,55.5,775.00,931.1
2020-09-13,10:50:00,DRY,2.57,11.50,62.7,775.00,950.8
2020-09-13,10:55:00,DRY,2.00,12.30,52.0,775.00,993.9
2020-09-13,11:00:00,DRY,2.67,12.80,51.0,775.00,969.3
2020-09-13,11:05:00,DRY,1.60,12.05,69.5,775.00,1061.3
2020-09-13,11:10:00,DRY,1.30,12.03,66.0,775.00,864.7
2020-09-13,11:15:00,DRY,2.85,11.15,76.5,775.00,531.8
2020-09-13,11:20:00,DRY,1.73,11.90,68.0,775.00,878.4
2020-09-13,11:25:00,DRY,1.95,12.60,63.0,775.00,1089.8
2020-09-13,11:30:00,DRY,2.77,13.10,46.0,775.00,1118.4
2020-09-13,11:35:00,DRY,2.25,13.50,48.5,775.00,1155.2
2020-09-13,11:40:00,DRY,2.97,13.10,51.0,775.00,691.9
2020-09-13,11:45:00,DRY,2.35,11.25,76.0,775.00,670.8
2020-09-13,11:50:00,DRY,2.00,10.03,96.3,775.00,208.3
2020-09-13,11:55:00,DRY,2.70,9.95,99.0,775.00,249.8
2020-09-13,12:00:00,DRY,2.63,9.80,98.0,775.00,957.1
2020-09-13,12:05:00,DRY,2.15,10.75,76.0,775.00,1005.7
2020-09-13,12:10:00,DRY,2.00,11.13,84.0,775.00,401.6
2020-09-13,12:15:00,DRY,2.90,10.30,91.5,775.00,395.8
2020-09-13,12:20:00,DRY,2.43,10.43,91.3,775.00,583.1
2020-09-13,12:25:00,DRY,2.45,10.65,89.0,775.00,905.2
2020-09-13,12:30:00,DRY,2.90,10.77,89.3,775.00,945.3
2020-09-13,12:35:00,DRY,3.75,10.45,87.5,775.00,1025.9
2020-09-13,12:40:00,DRY,3.07,10.53,91.0,775.00,813.5
2020-09-13,12:45:00,DRY,3.50,10.35,91.0,775.00,791.4
2020-09-13,12:50:00,DRY,3.20,10.67,92.3,775.00,808.0
2020-09-13,12:55:00,DRY,3.15,11.05,78.0,775.00,1032.8
2020-09-13,13:00:00,DRY,2.77,10.87,90.7,775.00,1009.4
2020-09-13,13:05:00,DRY,4.15,11.45,76.0,775.00,1124.1
2020-09-13,13:10:00,DRY,2.83,11.47,83.3,775.00,1314.0
2020-09-13,13:15:00,DRY,2.90,11.40,81.5,775.00,1137.0
2020-09-13,13:20:00,DRY,3.60,11.47,83.3,775.00,991.0
2020-09-13,13:25:00,DRY,4.05,11.40,84.5,775.00,925.5
2020-09-13,13:30:00,DRY,2.60,10.90,87.0,775.00,1268.1
2020-09-13,13:35:00,DRY,2.30,10.80,95.0,775.00,858.5
2020-09-13,13:40:00,DRY,4.40,11.07,81.7,775.00,1157.8
2020-09-13,13:45:00,DRY,2.90,11.25,83.5,775.00,1089.1
2020-09-13,13:50:00,DRY,3.80,11.60,75.0,775.00,1242.9
2020-09-13,13:55:00,DRY,4.05,11.85,69.5,775.00,1203.5
2020-09-13,14:00:00,DRY,4.53,11.27,76.7,775.00,1049.6
2020-09-13,14:05:00,DRY,3.95,11.20,80.0,775.00,1152.5
2020-09-13,14:10:00,DRY,4.90,11.30,72.0,775.00,1107.1
2020-09-13,14:15:00,DRY,4.05,11.35,73.5,775.00,1117.5
2020-09-13,14:20:00,DRY,4.60,11.40,73.7,775.00,1079.6
2020-09-13,14:25:00,DRY,4.10,11.30,77.5,775.00,1059.2
2020-09-13,14:30:00,DRY,2.93,11.33,79.7,775.00,867.3
2020-09-13,14:35:00,DRY,1.80,11.55,85.0,775.00,977.8
2020-09-13,14:40:00,DRY,3.33,11.43,85.0,775.00,836.6
2020-09-13,14:45:00,DRY,3.85,10.80,89.0,775.00,497.5
2020-09-13,14:50:00,DRY,2.93,11.07,89.0,775.00,826.5
2020-09-13,14:55:00,DRY,5.15,11.20,87.0,775.00,920.2
2020-09-13,15:00:00,DRY,4.17,11.13,86.0,775.00,812.7
2020-09-13,15:05:00,DRY,3.70,11.35,86.0,775.00,924.1
2020-09-13,15:10:00,DRY,4.40,11.10,86.0,775.00,734.9
2020-09-13,15:15:00,DRY,4.55,11.00,87.0,775.00,888.7
2020-09-13,15:20:00,DRY,4.83,11.07,86.7,775.00,759.0
2020-09-13,15:25:00,DRY,5.50,10.90,85.0,775.00,977.8
2020-09-13,15:30:00,DRY,5.13,10.87,83.7,775.00,888.0
2020-09-13,15:35:00,DRY,7.45,11.40,71.5,775.00,889.5
2020-09-13,15:40:00,DRY,4.37,11.27,72.0,775.00,873.8
2020-09-13,15:45:00,DRY,5.10,11.65,76.5,775.00,858.5
2020-09-13,15:50:00,DRY,5.13,11.50,68.7,775.00,849.1
2020-09-13,15:55:00,DRY,4.20,11.40,76.0,775.00,825.4
2020-09-13,16:00:00,DRY,5.20,11.43,75.0,775.00,809.0
2020-09-13,16:05:00,DRY,4.55,11.95,69.5,775.00,791.6
2020-09-13,16:10:00,DRY,4.40,11.90,62.3,775.00,776.4
2020-09-13,16:15:00,DRY,4.70,12.65,56.0,775.00,759.1
2020-09-13,16:20:00,DRY,4.93,12.77,56.0,775.00,740.3
2020-09-13,16:25:00,DRY,5.95,12.90,56.5,775.00,721.4
2020-09-13,16:30:00,DRY,4.87,12.53,54.3,775.00,705.5
2020-09-13,16:35:00,DRY,4.15,12.75,52.0,775.00,686.2
2020-09-13,16:40:00,DRY,5.10,13.27,49.3,775.00,665.1